Home   Weather   Phoenix   Past weeks

Flag for USA Past Weather in Phoenix, Arizona, USA — Yesterday and Last 2 Weeks

Now
76 °F

Partly cloudy.


Feels Like: 78 °F
Forecast: 73 / 90 °F
Wind: 8 mph from East

Location: Phoenix Sky Harbor International Airport

Current Time: Sep 27, 2016 at 1:51:04 AM

Latest Report: Sep 27, 2016 at 12:51 AM


Visibility: 10 mi

Pressure: 29.94 "Hg

Humidity: 37%

Dew Point: 48 °F

Location of PhoenixLocation

Past Weather in Phoenix — Graph

°F

Phoenix Temperature Yesterday

Maximum temperature yesterday: 89 °F (at 10:51 AM)
Minimum temperature yesterday: 75 °F (at 5:51 PM)
Average temperature yesterday: 82 °F

High & Low Weather Summary for the Past Weeks

 TemperatureHumidityPressure
High104 °F (Sep 18, 4:51 PM)94% (Sep 22, 3:58 PM)30.01 "Hg (Sep 22, 3:58 PM)
Low64 °F (Sep 24, 4:51 AM)6% (Sep 18, 4:51 PM)29.66 "Hg (Sep 12, 5:51 PM)
Average85 °F29%29.83 "Hg
* Reported Sep 11 11:51 PM — Sep 26 11:51 PM, Phoenix, Weather by CustomWeather, © 2016

Note: Actual official high and low records may vary slightly from our data, if they occured in-between our weather recording intervals... More about our weather records

Advertising

Phoenix Weather History for the Previous 24 Hours

Scroll right to see more
 ConditionsComfort  
Time TempWeatherWind HumidityBarometerVisibility
11:51 PM
Mon, Sep 26
77 °FPartly cloudy.13 mph36%29.95 "Hg10 mi
10:51 PM76 °FPartly cloudy.6 mph40%29.96 "Hg10 mi
9:51 PM77 °FPartly cloudy.7 mph40%29.94 "Hg10 mi
8:51 PM77 °FPartly cloudy.9 mph42%29.93 "Hg10 mi
7:51 PM77 °FPartly cloudy.8 mph47%29.93 "Hg10 mi
6:51 PM77 °FPartly cloudy.9 mph50%29.91 "Hg10 mi
5:51 PM75 °FLight rain. Partly sunny.14 mph58%29.92 "Hg10 mi
4:51 PM82 °FBroken clouds.17 mph35%29.90 "Hg10 mi
3:51 PM86 °FBroken clouds.20 mph27%29.91 "Hg9 mi
2:51 PM88 °FBroken clouds.7 mph25%29.93 "Hg10 mi
1:51 PM89 °FPartly sunny.15 mph24%29.94 "Hg10 mi
12:51 PM87 °FBroken clouds.13 mph24%29.97 "Hg10 mi
11:51 AM88 °FBroken clouds.13 mph24%29.99 "Hg10 mi
10:51 AM89 °FPartly sunny.14 mph23%30.00 "Hg10 mi
9:51 AM88 °FBroken clouds.9 mph27%30.01 "Hg10 mi
8:51 AM86 °FPartly sunny.10 mph29%30.01 "Hg10 mi
7:51 AM83 °FPartly sunny.8 mph32%30.00 "Hg10 mi
6:51 AM83 °FPartly sunny.12 mph30%29.98 "Hg10 mi
5:51 AM82 °FMostly cloudy.6 mph25%29.96 "Hg10 mi
4:51 AM82 °FMostly cloudy.9 mph26%29.95 "Hg10 mi
3:51 AM84 °FMostly cloudy.12 mph26%29.91 "Hg10 mi
2:51 AM82 °FPassing clouds.7 mph21%29.92 "Hg10 mi
1:51 AM82 °FPassing clouds.10 mph19%29.91 "Hg10 mi
Weather by CustomWeather, © 2016

See weather overviewHow to use our weather pages